Starlink 4673

operational
NORAD ID: 53589 Int'l Des: 2022-104 Owner: SPXS Country: US Constellation: starlink
LEOCIRCULAR

Starlink 4673について

説明を読み込み中...

リアルタイム位置

3D地球を読み込み中...

次回通過

高度履歴

Altitude vs Time

uPlot chart will show altitude changes over time

軌道要素

1 53589U 22104B 25303.85609141 .00000403 00000-0 43402-4 0 9990
2 53589 53.2164 107.0166 0001359 85.1513 274.9634 15.08840589176349
Epoch: Oct 30, 2025 • Age: 10 hours

現在のステータス

高度 542.1 km
速度 7.60 km/s
衛星直下点 37.54°N, 5.7°E
打ち上げ日 Aug 28, 2022
運用期間 3.1 years
タイプ internet

技術仕様

分類 Payload
質量 300.00 kg
乾燥質量 290.00 kg
総質量 300.00 kg
長さ 0.20 m
直径 2.80 m
スパン 9.00 m
形状 Box + pan
製造者 SPXS
バスタイプ Starlink
フェーズステータス In Orbit
所有者/国 SPXS/US

大規模コンステレーション

Loading constellations...